This is the latest recevied weather packets stored in our database for station/object EA7AIS-10. If no packets are shown the sender has not sent any weather packets the latest 10 day(s).
| Time | Temp. | Humidity | Pressure | Rain* | Wind** | Luminosity | Snow |
|---|---|---|---|---|---|---|---|
| 1777268736 | 16.67° C | 92% | 1012.3 hPa | - | - | - | - |
| 1777267836 | 16.67° C | 93% | 1012.3 hPa | - | - | - | - |
| 1777266936 | 16.11° C | 95% | 1012.3 hPa | - | - | - | - |
| 1777266036 | 16.67° C | 91% | 1012.1 hPa | - | - | - | - |
| 1777265137 | 16.67° C | 93% | 1012.3 hPa | - | - | - | - |
| 1777264236 | 16.67° C | 94% | 1012.4 hPa | - | - | - | - |
| 1777263336 | 16.67° C | 93% | 1012.5 hPa | - | - | - | - |
| 1777262436 | 16.67° C | 94% | 1012.5 hPa | - | - | - | - |
| 1777261536 | 16.67° C | 94% | 1012.6 hPa | - | - | - | - |
| 1777259736 | 16.67° C | 92% | 1012.8 hPa | - | - | - | - |
| 1777258836 | 16.67° C | 91% | 1012.9 hPa | - | - | - | - |
| 1777257936 | 16.67° C | 94% | 1013 hPa | - | - | - | - |
| 1777257035 | 16.67° C | 95% | 1013.1 hPa | - | - | - | - |
| 1777256135 | 16.67° C | 93% | 1013.3 hPa | - | - | - | - |
| 1777255235 | 16.67° C | 95% | 1013.2 hPa | - | - | - | - |
| 1777254335 | 16.67° C | 93% | 1013.3 hPa | - | - | - | - |
| 1777253435 | 16.67° C | 93% | 1013.6 hPa | - | - | - | - |
| 1777252535 | 17.22° C | 92% | 1013.6 hPa | - | - | - | - |
| 1777251635 | 16.67° C | 95% | 1013.9 hPa | - | - | - | - |
| 1777250734 | 17.22° C | 92% | 1014 hPa | - | - | - | - |
| 1777249834 | 16.67° C | 92% | 1014.1 hPa | - | - | - | - |
| 1777248935 | 16.67° C | 93% | 1014.4 hPa | - | - | - | - |
* Rain since midnight (hover to see other rain measurements)
** Current wind speed in m/s (hover to see current wind gust speed)